[[{"header":{"parameterUnit":"m.s-1","parameterCategory":1,"la1":30.2991,"la2":30.254,"lo1":-89.0895,"lo2":-89.0444,"dy":0.0017,"dx":0.0017,"nx":28,"ny":28,"refTime":"2023-11-04T21:00:00:Z","depth":0,"parameterNumber":2,"parameterNumberName":"U-component_of_WINDS"},"data":[0,0,0,0,0,0,0,0,0,0,0,0,0,0,0,0,0,0,0,0,0,0,0,0,0,0,0,0,0,0,0,0,0,0,0,0,0,0,0,0,0,0,0,0,0,0,0,0,0,0,0,0,0,0,0,0,0,0,-1.6026,-1.6026,0,-1.6014,-1.6014,-1.6014,-1.5942,-1.5941,-1.5939,-1.5937,-1.5926,-1.5927,-1.5929,0,0,0,0,0,0,0,0,0,0,0,0,0,-1.599,-1.5991,-1.6026,-1.6026,-1.6026,-1.6014,-1.6014,-1.6014,-1.5943,-1.5941,-1.5939,-1.5937,-1.5926,-1.5927,-1.5929,0,0,0,0,0,0,0,0,0,0,0,0,0,-1.5995,-1.5991,-1.6026,-1.5989,-1.5986,-1.6014,-1.6014,-1.6014,-1.5943,-1.5941,-1.5938,-1.5936,-1.5925,-1.5927,-1.5929,-1.5993,0,0,-1.5935,-1.5936,0,0,0,0,0,0,0,0,-1.5994,-1.5996,-1.5995,-1.5992,-1.5988,-1.5977,-1.5997,-1.6007,-1.5944,-1.5959,-1.5937,-1.5934,-1.5945,-1.5945,-1.5949,-1.5993,-1.5992,-1.5935,-1.5936,-1.5937,-1.5938,0,0,0,0,0,0,0,-1.5994,-1.5996,-1.6022,-1.5995,-1.5991,-1.5974,-1.5972,-1.5999,-1.5967,-1.5958,-1.5953,-1.5952,-1.5943,-1.5947,-1.5948,-1.5992,-1.5935,-1.5937,-1.5938,-1.5939,-1.6091,-1.6094,0,0,0,0,0,0,-1.5999,-1.5996,-1.6022,-1.6021,-1.5985,-1.5977,-1.5974,-1.5983,-1.5967,-1.5961,-1.5954,-1.5949,-1.5945,-1.5946,-1.5948,-1.6024,-1.5937,-1.5939,-1.594,-1.6089,-1.6092,-1.6095,0,0,0,0,0,0,-1.5998,-1.6002,-1.6022,-1.6007,-1.6009,-1.598,-1.5991,-1.5984,-1.5989,-1.5964,-1.5958,-1.5964,-1.5943,-1.5945,-1.5983,-1.6022,-1.594,-1.5942,-1.6085,-1.609,-1.6094,-1.6176,0,0,0,0,0,0,-1.5998,-1.6002,-1.6025,-1.6008,-1.601,-1.6058,-1.5993,-1.5986,-1.5992,-1.5985,-1.5972,-1.5967,-1.5941,-1.5981,-1.5985,-1.6024,-1.5943,-1.6081,-1.6087,-1.6092,-1.617,-1.6183,-1.6194,0,0,0,0,0,-1.5997,-1.6049,-1.6027,-1.603,-1.6038,-1.606,-1.6061,-1.603,-1.5995,-1.6019,-1.6004,-1.5968,-1.6017,-1.5985,-1.599,-1.6029,-1.6079,-1.6086,-1.6092,-1.6164,-1.618,-1.6193,0,0,0,0,0,0,-1.607,-1.6045,-1.6021,-1.6069,-1.6067,-1.6048,-1.6077,-1.6047,-1.6055,-1.6048,-1.6009,-1.6007,-1.6051,-1.6044,-1.6008,-1.6092,-1.6042,-1.605,-1.6096,-1.611,-1.6122,-1.6124,-1.5945,0,0,0,0,0,-1.6092,-1.6111,-1.6089,-1.6133,-1.6134,-1.6106,-1.6114,-1.609,-1.6087,-1.6086,-1.6073,-1.6072,-1.6087,-1.6098,-1.6111,-1.6168,-1.6166,-1.6198,-1.621,-1.622,-1.6227,-1.626,-1.6275,-1.6116,-1.6116,-1.6116,0,0,-1.6138,-1.6126,-1.6141,-1.6148,-1.6144,-1.6166,-1.6105,-1.613,-1.6147,-1.609,-1.6126,-1.6117,-1.6113,-1.6162,-1.6183,-1.6157,-1.6271,-1.6228,-1.6236,-1.6238,-1.6268,-1.6283,-1.6297,-1.6121,-1.612,-1.6119,0,0,-1.6232,-1.6224,-1.6262,-1.626,-1.6254,-1.6236,-1.6245,-1.6231,-1.6223,-1.6258,-1.6217,-1.6236,-1.6262,-1.6262,-1.6266,-1.6363,-1.6331,-1.6368,-1.6432,-1.6464,-1.6477,-1.6487,-1.6525,-1.6538,-1.6376,-1.6376,-1.6376,0,-1.6289,-1.632,-1.6285,-1.6314,-1.632,-1.6269,-1.6308,-1.6307,-1.6307,-1.6312,-1.6283,-1.6318,-1.6311,-1.6361,-1.6385,-1.6389,-1.64,-1.637,-1.6477,-1.6488,-1.6498,-1.6533,-1.6547,-1.6381,-1.638,-1.638,-1.6379,0,-1.6392,-1.6414,-1.6445,-1.6447,-1.6456,-1.6489,-1.6461,-1.6475,-1.6451,-1.6436,-1.6475,-1.6465,-1.6477,-1.6486,-1.6463,-1.6534,-1.6518,-1.6484,-1.6433,-1.6518,-1.6551,-1.6564,-1.6387,-1.6386,-1.6384,-1.6383,0,0,-1.6531,-1.6515,-1.6527,-1.6529,-1.652,-1.6537,-1.657,-1.6581,-1.6595,-1.6596,-1.6624,-1.6649,-1.6618,-1.6622,-1.6598,-1.6627,-1.6708,-1.6589,-1.6589,-1.6614,-1.6789,-1.6817,-1.6832,-1.6686,-1.6689,-1.669,-1.679,0,-1.6623,-1.6678,-1.6649,-1.6707,-1.6729,-1.6683,-1.6712,-1.6711,-1.6698,-1.6716,-1.6702,-1.6721,-1.6677,-1.668,-1.6706,-1.6693,-1.6743,-1.6685,-1.6714,-1.6715,-1.6718,-1.6849,-1.6877,-1.6972,-1.6802,-1.6804,-1.6806,0,-1.6738,-1.6746,-1.6807,-1.6798,-1.6806,-1.6832,-1.6842,-1.6858,-1.6857,-1.6846,-1.6852,-1.6822,-1.6855,-1.6804,-1.685,-1.6812,-1.6822,-1.6817,-1.682,-1.6823,-1.6767,-1.6857,-1.7001,-1.7016,-1.6825,-1.6824,-1.6822,0,-1.6837,-1.6862,-1.6903,-1.6905,-1.6895,-1.6915,-1.6911,-1.6907,-1.6917,-1.6926,-1.6932,-1.6944,-1.6952,-1.6963,-1.6938,-1.6902,-1.6989,-1.6935,-1.6982,-1.6983,-1.7003,-1.7003,-1.7153,-1.7007,-1.7007,-1.7006,-1.7006,0,-1.6943,-1.6983,-1.6948,-1.6973,-1.7017,-1.6984,-1.7029,-1.7021,-1.7019,-1.7043,-1.7003,-1.7026,-1.6991,-1.7012,-1.6993,-1.7036,-1.7038,-1.7032,-1.7027,-1.7037,-1.7038,-1.7044,-1.7038,-1.701,-1.7009,-1.7009,-1.7008,0,-1.7061,-1.7039,-1.7081,-1.7068,-1.7066,-1.7099,-1.7089,-1.7112,-1.7098,-1.7129,-1.7134,-1.7112,-1.7134,-1.7111,-1.7131,-1.7118,-1.7177,-1.7161,-1.7178,-1.7174,-1.7224,-1.7221,-1.7384,-1.7406,-1.7244,-1.7246,-1.7247,0,-1.7132,-1.7162,-1.7153,-1.7166,-1.7166,-1.7187,-1.7198,-1.7167,-1.718,-1.7182,-1.7206,-1.7226,-1.7239,-1.7278,-1.7264,-1.728,-1.7266,-1.7322,-1.7268,-1.7278,-1.727,-1.7269,-1.7274,-1.7334,-1.7336,-1.7337,-1.7339,0,-1.726,-1.7248,-1.7264,-1.7278,-1.7292,-1.7301,-1.7307,-1.732,-1.7289,-1.7305,-1.7328,-1.7339,-1.7361,-1.7382,-1.7395,-1.7392,-1.7362,-1.7356,-1.7368,-1.738,-1.7389,-1.7387,-1.721,-1.7352,-1.7351,-1.735,-1.7349,-1.7349,-1.7358,-1.7384,-1.7382,-1.7403,-1.7404,-1.7412,-1.7434,-1.7423,-1.7442,-1.7458,-1.7439,-1.7468,-1.7469,-1.7482,-1.7484,-1.7507,-1.7483,-1.7501,-1.7505,-1.7511,-1.7519,-1.7384,-1.7509,-1.7509,-1.7508,-1.7508,-1.7507,0,-1.7486,-1.7484,-1.7503,-1.7514,-1.753,-1.75,-1.7506,-1.7522,-1.7548,-1.7551,-1.7566,-1.7595,-1.7615,-1.7604,-1.7622,-1.7643,-1.763,-1.7649,-1.7648,-1.7649,-1.7538,-1.7527,-1.766,-1.766,-1.766,-1.766,-1.766,-1.766,-1.7555,-1.7598,-1.7587,-1.7631,-1.7628,-1.7657,-1.7663,-1.7671,-1.7673,-1.7707,-1.7724,-1.7716,-1.7714,-1.7733,-1.7751,-1.7747,-1.7757,-1.7782,-1.7773,-1.7671,-1.7656,-1.7642,-1.7631,-1.7784,-1.7784,-1.7882,-1.7883,-1.7884]},{"header":{"parameterUnit":"m.s-1","parameterCategory":1,"la1":30.2991,"la2":30.254,"lo1":-89.0895,"lo2":-89.0444,"dy":0.0017,"dx":0.0017,"nx":28,"ny":28,"refTime":"2023-11-04T21:00:00:Z","depth":0,"parameterNumber":3,"parameterNumberName":"V-component_of_WINDS"},"data":[0,0,0,0,0,0,0,0,0,0,0,0,0,0,0,0,0,0,0,0,0,0,0,0,0,0,0,0,0,0,0,0,0,0,0,0,0,0,0,0,0,0,0,0,0,0,0,0,0,0,0,0,0,0,0,0,0,0,1.3782,1.3782,0,1.3759,1.3758,1.3758,1.3807,1.3809,1.381,1.3812,1.3781,1.3779,1.3777,0,0,0,0,0,0,0,0,0,0,0,0,0,1.3864,1.3863,1.3782,1.3782,1.3782,1.3759,1.3758,1.3758,1.3807,1.3809,1.3811,1.3813,1.3782,1.3779,1.3777,0,0,0,0,0,0,0,0,0,0,0,0,0,1.3833,1.3862,1.3782,1.3804,1.3805,1.3759,1.3758,1.3758,1.3807,1.3809,1.3811,1.3814,1.3783,1.378,1.3776,1.3706,0,0,1.3766,1.3764,0,0,0,0,0,0,0,0,1.3835,1.383,1.3801,1.3802,1.3804,1.3789,1.3776,1.374,1.3806,1.3806,1.3812,1.3815,1.3781,1.3778,1.3768,1.3705,1.3704,1.3765,1.3763,1.3762,1.3761,0,0,0,0,0,0,0,1.3837,1.3832,1.3773,1.38,1.3802,1.3812,1.3811,1.377,1.378,1.3806,1.381,1.3806,1.3783,1.3771,1.3768,1.3703,1.3765,1.3762,1.376,1.3759,1.358,1.3577,0,0,0,0,0,0,1.3837,1.3833,1.3774,1.3772,1.3826,1.3809,1.3807,1.3791,1.3781,1.3782,1.3804,1.3809,1.3776,1.3772,1.3767,1.3683,1.3762,1.3758,1.3756,1.3583,1.3579,1.3577,0,0,0,0,0,0,1.3839,1.3832,1.3775,1.3804,1.3797,1.3805,1.3786,1.3789,1.3778,1.378,1.3781,1.3791,1.3778,1.3772,1.3721,1.3682,1.3757,1.3754,1.3586,1.3582,1.3578,1.3514,0,0,0,0,0,0,1.3841,1.3832,1.3806,1.3803,1.3795,1.373,1.3784,1.3787,1.3773,1.3778,1.3768,1.3768,1.3779,1.3726,1.3718,1.3679,1.3751,1.3589,1.3584,1.3579,1.352,1.3509,1.3499,0,0,0,0,0,1.3844,1.3788,1.3805,1.3797,1.3764,1.3728,1.3724,1.3739,1.3769,1.3743,1.3744,1.3768,1.3689,1.3721,1.3711,1.3671,1.3592,1.3585,1.358,1.3525,1.3511,1.3499,0,0,0,0,0,0,1.3785,1.3788,1.3806,1.3749,1.3738,1.3736,1.3703,1.3725,1.3704,1.3709,1.3728,1.3725,1.367,1.3666,1.3701,1.3602,1.3645,1.3637,1.3606,1.3593,1.3583,1.3583,1.3748,0,0,0,0,0,1.3766,1.3738,1.3742,1.369,1.3684,1.3695,1.368,1.3693,1.3682,1.3677,1.3674,1.3661,1.3633,1.3614,1.3588,1.3521,1.3518,1.3489,1.3479,1.347,1.3461,1.3424,1.341,1.3557,1.3557,1.3557,0,0,1.3724,1.3723,1.3703,1.3678,1.3672,1.364,1.369,1.3655,1.3632,1.3671,1.3623,1.3621,1.3607,1.3548,1.3521,1.3542,1.3421,1.3463,1.3456,1.3452,1.3416,1.3403,1.339,1.3553,1.3554,1.3554,0,0,1.3632,1.363,1.3585,1.3579,1.3569,1.3577,1.3566,1.3562,1.3563,1.3516,1.3544,1.3516,1.3468,1.3456,1.3444,1.335,1.3371,1.3342,1.3285,1.3249,1.3237,1.3227,1.319,1.3178,1.3334,1.3334,1.3334,0,1.3581,1.3537,1.356,1.3523,1.351,1.3548,1.3502,1.3493,1.3475,1.3464,1.3489,1.343,1.3423,1.3361,1.3338,1.3328,1.3314,1.3341,1.3238,1.3228,1.3218,1.3183,1.317,1.333,1.3331,1.3331,1.3331,0,1.3473,1.3442,1.3408,1.3391,1.3375,1.3333,1.3348,1.3329,1.3345,1.3349,1.33,1.3295,1.3268,1.3255,1.3269,1.3194,1.3207,1.3235,1.3277,1.32,1.3168,1.3155,1.3325,1.3326,1.3327,1.3328,0,0,1.3339,1.3338,1.3324,1.3316,1.331,1.3285,1.3246,1.3222,1.3204,1.3191,1.3156,1.3116,1.3141,1.3128,1.3141,1.311,1.3033,1.3141,1.3141,1.3118,1.2947,1.2923,1.2907,1.3049,1.3046,1.3044,1.2947,0,1.3245,1.3179,1.3199,1.3131,1.3101,1.3138,1.3103,1.3094,1.3098,1.3073,1.3077,1.3047,1.3085,1.3076,1.3047,1.3048,1.2998,1.3056,1.3013,1.3011,1.3011,1.2891,1.2866,1.2773,1.2934,1.2932,1.2931,0,1.3126,1.311,1.304,1.3038,1.3026,1.2995,1.2974,1.2951,1.2941,1.2946,1.2932,1.2953,1.2912,1.2959,1.2901,1.294,1.2925,1.2923,1.292,1.2912,1.2963,1.2877,1.2745,1.2729,1.2912,1.2913,1.2915,0,1.3031,1.2992,1.2945,1.2938,1.2935,1.2912,1.291,1.2903,1.2888,1.287,1.2859,1.2837,1.2823,1.2804,1.2817,1.2851,1.2757,1.2805,1.2757,1.2756,1.2731,1.2732,1.2591,1.2728,1.2729,1.2729,1.2729,0,1.2922,1.2876,1.2902,1.2872,1.2822,1.2846,1.2795,1.2797,1.2791,1.2761,1.2792,1.2762,1.2784,1.2756,1.2766,1.2716,1.271,1.2711,1.2713,1.2706,1.2705,1.2692,1.2697,1.2725,1.2726,1.2727,1.2727,0,1.2805,1.2821,1.2771,1.2774,1.2774,1.2736,1.2738,1.2709,1.2718,1.2679,1.2671,1.2682,1.2651,1.2664,1.2631,1.2638,1.2572,1.2585,1.2575,1.2577,1.2527,1.253,1.2369,1.2348,1.2502,1.2501,1.25,0,1.2732,1.2698,1.2698,1.2681,1.2677,1.265,1.2635,1.2658,1.264,1.2628,1.26,1.2573,1.2551,1.2499,1.2503,1.2477,1.2487,1.2433,1.2483,1.2476,1.2482,1.2482,1.2477,1.2421,1.2419,1.2418,1.2417,0,1.26,1.261,1.2588,1.2569,1.2551,1.2536,1.2524,1.2508,1.2531,1.2509,1.2479,1.2463,1.243,1.24,1.2378,1.2374,1.2397,1.2402,1.2389,1.2378,1.2372,1.2371,1.2543,1.2404,1.2405,1.2406,1.2407,1.2407,1.25,1.2471,1.2467,1.2441,1.2436,1.2424,1.2397,1.2403,1.2379,1.2355,1.237,1.2334,1.2325,1.2298,1.2291,1.2262,1.2282,1.2264,1.2259,1.2253,1.2245,1.2381,1.2258,1.2259,1.2259,1.2259,1.226,0,1.2366,1.2366,1.2343,1.2326,1.2305,1.2334,1.2323,1.2303,1.2271,1.2263,1.2242,1.2206,1.2179,1.2182,1.2156,1.2132,1.2142,1.2124,1.2123,1.2121,1.2229,1.2241,1.2116,1.2116,1.2116,1.2116,1.2116,1.2116,1.2294,1.2246,1.2256,1.2205,1.2205,1.2171,1.2161,1.215,1.2144,1.2103,1.2081,1.2085,1.208,1.2055,1.203,1.2032,1.2019,1.1996,1.2001,1.21,1.2114,1.2128,1.2139,1.1994,1.1994,1.1895,1.1894,1.1894]}]]